Location: Poughquag
(41.6090°N, 73.6820°W)
Time: 14:55:19
(UTC-04:00)

Vanguard 2 - Pass Details

Date: 07 June 2020
Orbit: 552 x 2938 km, 32.9° (Epoch: 06 July)

Event Time Altitude Azimuth Distance (km) Brightness Sun altitude
Rises 15:31:08 0° 214° (SSW) 6,692 12.7 52.3°
Reaches altitude 10° 15:36:15 10° 206° (SSW) 5,753 12.5 51.3°
Maximum altitude 15:50:53 33° 151° (SSE) 3,909 11.4 48.7°
Drops below altitude 10° 16:03:01 10° 94° (E) 4,798 11.3 46.5°
Sets 16:06:46 0° 85° (E) 5,495 11.5 45.8°
